Theta_e
335 336 326 320 307 303 298 309 319 318 320 326 327 323 319 321 318 311 339 345 352 353 356 360 362 359 358 358 358 357 356 356 356 355 355 355 355 355 354 354 354 354 353 352 352 352 352 352 352
324 325 321 312 303 297 299 309 315 319 324 328 328 325 325 323 334 332 336 350 353 353 353 356 361 360 358 358 357 357 357 356 355 355 355 354 355 355 355 355 354 354 355 354 354 354 353 354 354
324 321 313 306 300 297 301 316 320 323 327 327 326 329 328 326 335 333 338 349 351 350 351 353 360 360 357 357 357 357 356 356 354 354 353 353 353 353 354 354 354 355 355 355 355 355 356 355 356
318 315 312 304 301 302 312 319 324 323 326 328 329 324 332 338 336 338 346 349 347 347 349 356 360 360 358 356 356 357 355 355 355 353 353 353 353 355 355 354 354 354 354 354 355 355 355 355 355
310 310 302 299 301 307 311 323 322 320 321 325 328 323 325 338 340 340 342 346 345 347 349 354 360 360 358 356 356 357 356 356 356 354 354 355 357 357 357 356 355 355 354 354 354 355 357 356 354
304 306 297 295 301 308 310 322 319 318 321 324 324 323 325 339 337 338 340 343 346 346 349 351 358 360 359 359 358 357 357 356 356 356 355 356 356 356 357 358 356 356 357 355 355 357 357 356 356
301 302 299 300 304 305 312 321 318 318 320 322 326 320 327 337 339 339 340 342 342 346 346 346 350 355 358 358 358 357 355 354 354 354 354 355 356 357 358 358 358 355 358 358 357 357 357 356 356
307 305 303 302 302 302 312 318 322 319 319 329 331 321 322 332 343 346 343 341 340 340 341 341 344 346 345 345 356 355 355 354 353 354 355 355 355 350 349 352 350 355 357 356 352 353 352 351 353
309 300 298 302 305 307 310 313 320 324 324 328 330 329 332 337 340 339 338 339 337 339 339 341 341 342 343 343 346 354 356 356 355 353 353 348 333 331 337 346 347 347 350 351 348 347 345 344 345
301 297 299 308 310 308 310 315 316 322 323 324 328 333 335 333 335 333 333 335 338 338 338 338 339 340 342 347 343 346 347 348 346 344 340 326 326 328 331 335 338 337 344 343 339 340 337 333 334
299 298 302 309 313 312 308 313 320 322 318 323 325 329 327 330 330 331 333 336 336 337 339 341 340 342 342 343 336 343 343 342 341 333 327 323 327 322 322 320 320 319 327 319 320 321 323 324 327
297 303 307 309 315 309 308 312 317 321 321 329 331 329 327 328 329 330 333 333 336 334 333 333 336 328 324 324 327 328 332 333 329 325 324 321 323 321 319 317 317 318 317 315 314 317 317 317 320
298 302 305 306 308 308 311 310 317 313 328 333 328 328 327 328 328 332 334 334 334 328 329 329 327 325 323 324 323 321 322 323 326 324 324 324 320 321 318 318 315 317 316 314 312 315 315 314 314
302 301 301 301 305 309 309 310 311 312 330 329 326 325 326 327 329 329 329 327 329 328 327 327 324 324 324 321 322 321 321 321 320 320 322 324 322 320 319 318 315 317 317 315 312 314 313 313 313
302 297 299 300 304 306 312 307 308 317 328 325 325 324 325 327 328 328 330 326 328 328 326 325 326 326 322 323 323 320 320 323 321 321 322 323 322 320 318 318 317 319 318 315 315 316 314 314 314
298 297 294 299 305 307 305 297 305 318 324 322 323 323 324 325 325 325 328 327 326 325 325 327 332 324 322 321 320 322 323 321 319 320 321 323 323 321 319 318 318 320 317 317 320 318 317 315 313
296 293 294 299 303 306 302 298 307 315 322 318 320 321 322 321 323 325 327 326 326 325 325 325 327 325 324 322 326 324 320 318 318 317 316 318 320 319 316 313 313 316 315 314 316 314 314 313 314
292 294 296 296 301 301 298 297 303 314 318 318 318 317 319 319 320 324 329 328 325 325 323 325 324 323 323 327 324 320 317 317 315 316 314 315 315 316 311 311 311 312 313 312 312 310 312 315 314
299 298 297 300 302 299 296 298 300 307 317 316 316 316 316 318 321 324 328 326 322 325 322 322 322 323 325 324 322 319 316 317 313 313 316 314 314 314 311 310 310 310 310 310 310 309 309 309 309
300 297 296 299 302 298 298 300 304 307 313 316 316 315 315 316 319 322 323 323 319 324 322 323 325 325 322 320 320 317 313 312 313 311 311 313 314 313 314 310 310 309 309 309 309 308 307 308 309
297 297 296 297 300 298 297 298 301 308 314 317 317 317 317 317 317 320 321 320 320 324 324 326 323 320 319 319 316 313 311 310 310 309 310 312 313 313 312 311 310 309 307 306 306 307 306 306 311
295 302 302 300 296 292 296 289 295 300 306 313 315 316 316 317 318 318 319 318 319 325 327 325 321 319 319 317 313 310 307 307 308 308 308 310 311 311 311 310 309 307 307 306 306 310 308 311 305
300 303 299 299 294 292 294 290 293 298 299 304 312 315 316 317 318 317 320 319 320 325 325 323 321 318 316 314 312 310 308 308 308 308 307 307 307 308 309 309 307 306 309 311 307 306 306 307 303
305 300 297 295 291 287 291 292 292 294 299 300 303 310 317 317 318 319 319 320 321 322 321 320 317 315 314 314 313 311 309 307 306 305 305 305 305 305 307 308 307 307 306 308 310 309 307 307 307
301 294 287 286 286 286 292 292 293 298 302 303 307 311 316 317 316 317 317 316 316 316 317 315 312 311 311 311 310 308 308 306 305 304 304 303 303 304 305 309 309 309 309 309 310 308 307 306 306
297 294 288 283 283 286 294 289 294 301 303 304 308 313 314 313 313 314 314 310 313 316 313 310 309 309 306 307 307 308 306 305 304 303 303 303 303 307 307 310 310 310 311 309 308 306 306 305 305
298 294 295 289 289 287 290 294 299 301 302 302 304 310 311 311 312 314 313 308 308 307 307 307 305 305 306 307 308 306 305 303 303 304 303 303 305 306 308 309 309 309 309 306 307 306 306 306 305
300 301 292 290 285 284 288 290 292 298 299 302 303 302 304 306 308 310 310 307 306 304 304 303 303 303 305 306 305 305 304 304 304 303 302 302 303 307 308 308 308 308 308 308 307 306 307 306 305
300 295 294 292 290 285 284 288 298 299 301 300 300 300 301 302 304 305 305 305 304 303 302 302 303 305 305 305 304 303 304 304 303 302 301 305 306 307 307 307 307 307 306 307 306 306 306 306 305
300 296 294 289 288 289 287 288 299 300 300 301 301 303 301 301 302 302 303 303 302 302 302 303 303 305 305 304 303 303 303 302 301 302 305 306 306 306 307 307 306 306 306 307 306 306 307 306 305
Wind_Speed
2 6 3 3 6 7 3 3 0 5 4 1 8 3 5 2 2 3 3 7 10 7 5 7 10 10 9 8 8 7 7 7 6 6 6 6 5 5 4 4 4 4 4 4 5 5 6 6 7
4 5 2 1 8 5 4 2 2 2 6 13 10 6 3 1 3 4 5 6 10 8 5 5 11 11 11 9 8 7 7 6 5 4 4 3 3 3 3 3 3 4 4 5 5 5 5 5 7
2 4 5 6 4 1 3 4 7 8 12 3 5 3 3 2 3 6 4 11 8 6 5 5 11 10 11 10 9 7 6 5 4 3 2 1 1 1 2 4 5 5 5 6 6 6 6 5 6
6 6 5 5 1 2 7 7 11 7 6 5 6 5 4 2 8 6 12 11 9 6 6 9 11 11 11 11 9 7 7 6 4 2 1 2 3 4 5 5 5 6 7 8 8 9 8 8 8
5 4 5 2 1 2 2 9 6 6 3 6 4 4 2 3 9 13 11 11 10 6 5 6 10 10 10 10 9 7 6 5 3 3 3 4 5 6 7 8 8 9 9 9 10 10 9 9 10
5 3 5 2 4 3 2 14 7 3 5 6 7 6 2 6 11 8 8 8 7 7 5 5 8 8 8 8 7 6 5 5 4 4 5 6 8 8 9 9 9 10 10 10 10 10 11 11 10
7 5 3 2 6 3 7 11 8 7 11 5 8 6 4 4 6 9 6 6 4 4 4 4 5 7 8 7 7 7 6 5 4 4 6 7 8 9 9 9 8 10 10 8 9 10 11 10 11
6 5 2 2 4 2 6 4 7 9 7 10 8 6 6 6 8 8 7 6 5 1 3 4 4 4 3 3 5 5 4 4 6 5 5 6 6 6 7 6 5 8 8 5 6 8 8 9 7
3 5 3 5 6 7 6 4 5 2 13 3 4 6 9 10 12 8 7 5 4 4 6 5 5 4 4 4 3 6 6 6 5 4 6 2 1 3 6 9 9 8 7 4 5 8 9 9 10
5 3 8 9 7 10 12 10 10 7 13 3 8 9 11 13 12 9 5 4 3 4 5 6 6 6 5 4 3 4 4 3 3 2 1 0 1 1 3 5 7 7 6 8 9 9 8 7 4
3 7 5 7 8 8 9 9 3 18 5 14 22 17 12 16 12 9 7 13 10 10 6 7 6 5 5 4 2 2 1 1 2 1 1 3 1 2 1 1 2 1 4 3 4 4 3 4 3
2 9 6 2 7 7 11 8 4 10 7 19 22 19 14 19 15 14 15 8 11 3 9 10 7 5 5 2 3 1 1 1 1 2 3 3 2 3 2 1 1 2 2 2 1 1 1 2 3
4 8 5 5 12 8 11 8 9 6 15 18 13 16 17 15 14 12 6 7 8 7 4 6 8 7 6 6 3 3 3 1 0 3 4 3 3 4 4 4 2 3 2 1 2 3 3 2 1
2 5 2 4 3 6 10 5 6 3 19 18 14 17 16 16 13 5 5 6 8 7 5 5 7 8 7 6 5 3 2 3 2 4 5 6 4 4 4 4 4 4 3 3 3 4 2 3 3
3 3 4 0 5 5 9 2 6 10 20 17 14 12 9 5 5 6 4 1 7 5 4 4 5 7 8 7 6 4 3 4 4 3 5 6 6 5 4 4 4 4 3 4 3 1 3 3 3
5 7 6 7 2 3 6 4 3 15 21 16 12 9 8 3 1 3 4 5 5 5 5 5 5 6 7 6 5 4 5 4 4 5 5 7 7 7 6 4 4 4 3 3 2 2 1 1 4
9 3 4 4 5 4 2 3 10 12 16 9 11 7 6 6 4 6 2 3 2 4 7 5 5 7 6 6 5 6 6 5 4 4 3 5 5 5 5 4 4 4 4 3 2 2 2 3 2
2 1 4 5 7 9 6 3 7 9 17 15 11 8 7 8 11 7 4 3 2 2 2 6 3 5 6 5 5 3 4 4 3 1 2 3 2 3 2 3 5 5 4 5 3 3 2 3 2
1 5 3 2 6 5 4 7 8 5 8 10 9 10 9 11 5 5 2 3 5 1 2 3 4 3 2 2 1 2 2 2 2 2 1 2 2 4 4 3 4 4 4 5 5 3 3 2 1
4 5 4 4 6 4 7 8 7 6 3 7 12 9 10 4 8 5 4 4 4 3 2 1 3 4 3 3 2 1 1 1 2 2 3 1 4 5 4 4 5 6 4 4 2 0 1 2 1
4 4 1 2 3 3 6 6 6 6 6 2 3 2 5 11 11 6 4 6 3 3 6 5 5 5 3 3 1 2 3 2 3 2 3 3 5 5 4 5 4 6 4 4 3 2 2 2 1
3 2 2 3 3 3 3 3 4 4 2 4 5 5 7 9 4 2 5 5 4 5 6 7 5 5 5 5 4 2 2 2 3 1 2 4 4 5 6 5 4 5 4 5 4 1 1 2 3
3 2 3 2 1 6 8 7 6 2 1 4 7 8 8 7 6 6 8 7 6 5 6 6 5 6 4 5 2 2 3 2 1 2 4 4 5 6 6 5 6 5 4 4 4 2 1 2 2
2 3 7 5 4 5 3 5 3 2 5 3 4 8 8 8 8 6 5 5 5 2 4 5 7 6 4 3 3 4 5 4 2 3 3 4 3 4 6 6 5 5 5 5 3 1 3 3 3
10 9 6 8 8 3 6 5 8 5 3 6 7 7 9 6 4 6 7 2 1 5 7 5 3 3 4 3 3 4 4 3 4 5 4 5 4 4 6 6 4 3 4 5 3 3 4 5 5
4 6 6 1 1 6 5 2 6 2 1 1 4 5 4 4 5 4 4 4 8 9 6 1 3 4 3 4 5 2 2 2 3 3 3 4 4 5 6 5 5 5 5 3 4 4 5 5 5
1 4 4 7 2 2 4 3 4 1 2 2 4 5 5 5 7 8 7 8 6 4 4 4 3 3 4 4 3 2 2 2 1 4 5 4 6 5 6 6 6 6 5 6 6 5 7 5 5
4 5 4 5 0 2 5 5 6 6 3 1 5 6 7 7 8 8 7 8 3 3 3 2 1 3 3 3 2 2 2 2 4 4 7 6 7 6 7 6 6 7 7 6 6 7 5 5 4
3 2 7 5 5 5 1 7 8 10 10 9 7 6 7 6 6 6 6 4 5 4 2 3 3 3 0 1 2 2 3 5 6 6 6 6 6 7 7 7 6 7 7 6 6 7 6 7 5
2 3 5 7 4 2 4 9 3 7 5 6 9 9 5 6 7 5 5 5 5 5 5 3 1 2 2 2 3 4 5 6 7 7 6 6 7 7 7 6 7 7 7 7 7 7 5 5 4
Wind_Direction
149 176 125 58 56 63 9 338 60 125 117 96 121 147 160 143 184 199 319 158 135 136 157 159 146 141 143 136 127 117 113 106 94 87 84 80 73 65 58 52 43 33 31 25 23 25 18 9 5
173 140 61 78 81 59 301 14 173 145 126 116 99 123 84 67 105 114 111 156 142 146 157 157 156 151 154 149 144 141 132 120 110 105 97 82 73 45 17 8 7 357 350 347 344 347 351 347 339
214 152 82 82 91 175 143 126 147 121 129 119 107 108 99 100 46 153 134 140 129 147 159 180 162 159 158 157 158 154 146 145 150 150 150 116 24 338 316 324 328 328 323 318 316 315 315 313 310
13 10 36 83 254 268 137 161 138 137 86 60 111 71 51 30 159 176 139 143 141 159 171 183 171 167 168 167 167 165 163 176 193 189 258 291 299 306 307 302 299 300 302 307 306 305 303 301 297
33 71 48 24 162 144 143 151 147 158 93 120 123 121 73 28 113 132 148 152 156 173 182 178 175 174 175 177 176 175 179 198 226 256 280 295 302 307 302 301 305 301 296 297 301 298 291 287 289
31 74 20 336 331 158 173 157 154 130 146 125 110 107 107 124 124 152 149 151 155 165 168 178 187 188 186 187 187 191 203 214 235 273 290 311 315 315 311 306 307 299 295 295 297 293 292 285 280
106 87 249 156 288 83 158 149 148 176 147 165 152 110 132 156 157 143 130 108 122 142 163 190 193 204 204 200 208 214 213 241 266 285 311 320 315 309 305 302 304 315 311 302 302 302 297 288 283
114 97 140 261 231 134 134 120 149 186 172 129 146 160 160 201 135 106 80 79 84 87 202 204 218 211 221 262 252 250 256 256 274 289 299 319 323 343 353 6 326 327 344 353 3 337 10 7 342
115 60 218 226 199 166 138 140 147 227 135 181 181 116 145 125 115 108 115 112 121 191 212 198 215 210 216 236 250 266 263 248 260 305 316 350 90 53 46 49 41 31 14 33 38 32 25 20 12
105 135 241 197 187 165 167 165 177 123 153 103 100 115 111 116 124 111 111 139 167 229 234 230 197 204 196 238 194 226 249 262 270 303 298 248 173 133 91 60 49 20 55 49 35 21 24 43 31
176 204 231 216 190 143 155 177 212 134 208 165 151 151 128 131 129 137 137 181 184 177 185 205 215 210 199 221 247 221 191 294 296 218 208 253 221 266 333 58 53 56 66 41 38 42 28 50 62
283 243 191 201 157 137 170 121 89 180 189 164 160 147 149 151 159 166 194 130 168 197 164 168 173 152 102 101 90 115 133 239 231 263 268 254 276 263 265 250 258 193 194 143 140 148 113 49 42
197 276 151 266 159 152 126 173 177 222 136 155 129 155 165 161 173 185 161 167 146 159 171 157 136 131 113 85 84 68 50 357 252 347 320 315 302 297 313 303 304 292 315 339 242 190 198 169 134
246 329 221 132 199 129 133 152 137 210 147 153 157 169 175 172 173 121 137 170 152 157 180 157 143 132 122 119 107 94 47 22 25 3 346 349 315 304 333 337 344 328 340 329 308 305 331 351 349
301 217 1 55 174 141 123 45 192 128 156 157 177 170 162 192 95 164 208 138 147 151 140 175 149 136 134 134 145 112 64 54 53 57 39 35 32 29 16 7 360 343 340 344 338 334 347 358 349
19 43 7 335 48 24 61 226 204 153 161 165 166 160 173 201 173 236 5 47 68 95 165 183 154 148 134 102 76 65 63 67 54 51 44 36 37 38 39 26 358 338 348 343 348 339 317 213 317
17 9 348 353 38 128 78 265 66 157 162 134 160 164 174 218 290 261 19 38 171 170 178 171 184 150 128 83 85 90 81 74 64 63 56 47 50 47 33 359 326 330 317 303 288 292 275 296 315
272 59 23 39 327 56 26 22 53 153 157 159 154 152 185 199 231 272 54 24 327 257 197 203 164 124 86 90 93 89 85 66 58 114 68 38 25 29 354 307 317 325 309 292 280 269 269 257 263
213 114 105 324 334 81 19 6 354 39 101 126 153 171 192 210 271 309 339 329 308 234 254 239 161 78 99 79 15 47 100 280 215 222 245 348 352 2 350 342 344 337 311 281 281 273 265 278 342
196 108 1 328 349 71 45 32 14 49 144 184 161 185 202 214 243 254 252 293 349 262 144 71 104 124 121 114 195 227 182 243 276 304 281 348 2 352 354 356 334 320 311 326 314 246 311 289 317
24 80 11 220 343 44 97 15 10 15 28 28 56 187 223 211 217 231 219 247 302 218 150 153 151 140 123 148 110 251 34 6 334 315 333 345 346 339 329 307 311 307 303 298 296 271 198 275 4
53 256 242 263 87 201 57 216 357 20 350 303 261 241 232 233 237 182 215 251 247 239 171 167 173 162 211 205 223 171 196 231 242 274 296 305 308 313 315 311 309 301 294 292 276 216 231 214 241
220 354 33 14 92 90 345 78 264 180 84 259 255 252 249 245 230 219 222 219 222 218 186 160 195 227 232 223 239 200 238 249 303 285 287 300 311 306 293 285 295 291 284 280 262 291 256 235 211
29 16 42 48 54 59 266 122 262 226 169 223 254 235 233 231 227 226 237 214 206 147 172 201 208 227 247 249 240 232 247 265 267 289 289 287 279 280 282 275 266 286 293 275 274 318 281 268 243
58 45 356 11 12 241 325 54 235 258 185 181 188 215 213 212 195 197 200 216 141 199 207 212 210 266 270 268 290 269 253 223 249 270 277 291 289 276 275 271 286 275 270 245 246 265 261 260 255
66 110 138 59 292 279 335 132 260 246 126 182 174 156 130 174 195 197 171 198 203 209 209 204 218 235 277 284 281 238 251 292 294 280 273 273 261 271 287 287 282 274 264 247 259 255 260 252 250
134 42 173 105 11 44 287 319 354 101 188 114 127 139 180 217 184 181 184 199 200 190 205 197 192 244 279 270 215 268 272 262 272 300 287 277 286 286 287 295 287 288 259 259 252 269 262 245 247
95 155 39 13 115 288 304 284 235 230 209 231 137 161 189 210 191 195 191 189 186 140 146 163 222 244 256 218 217 232 219 219 270 275 280 289 280 282 289 290 286 287 276 265 265 270 252 249 247
11 30 55 110 131 169 226 269 216 208 196 194 195 186 191 183 180 178 187 132 142 117 134 207 212 203 238 345 293 261 269 278 278 265 286 277 291 296 294 286 289 296 295 282 271 269 258 256 255
176 160 122 118 250 195 156 268 301 254 201 162 201 212 188 180 188 162 133 140 154 189 197 193 253 200 235 268 266 253 273 292 288 300 299 290 292 299 299 293 298 293 288 290 279 282 278 268 279